Flag for U.S.A. Weather past 2 weeks in Hialeah, Florida, U.S.A.

Now
91 °F

Passing clouds.


Feels Like: 92 °F
Forecast: 72 / 86 °F
Wind: 23 mph from Southwest

Location: Opa Locka Airport

Current Time: Mar 27, 2015 at 3:41:22 PM

Latest Report: Mar 27, 2015 at 2:53 PM


Visibility: 10 mi

Pressure: 29.86 "Hg

Humidity: 38%

Dew point: 62 °F

Location of HialeahLocation

Historic Weather in Hialeah — Graph

°F

Hialeah temperature yesterday

Maximum temperature yesterday: 87 °F (at 3:53 PM)
Minimum temperature yesterday: 70 °F (at 5:53 AM)
Average temperature yesterday: 79 °F

Past Weeks' High & Low Weather Summary

 TemperatureHumidityPressure
High90 °F (Mar 23, 2:53 PM)100% (Mar 25, 5:53 AM)30.20 "Hg (Mar 25, 5:53 AM)
Low66 °F (Mar 18, 3:53 AM)34% (Mar 23, 2:53 PM)29.88 "Hg (Mar 27, 1:53 PM)
Average77 °F72%30.05 "Hg
* Reported Mar 12 1:53 PM — Mar 27 1:53 PM, Hialeah, Weather by CustomWeather, © 2015

Note: Actual official high and low records may vary slightly from our data, if they occured in-between our weather recording intervals... More about our weather records

Advertising

Hialeah weather history for previous 24 hours

 ConditionsComfort  
Time TempWeatherWind HumidityBarometerVisibility
1:53 PM
Fri, Mar 27
90 °FPassing clouds.21 mph45%29.88 "Hg10 mi
12:53 PM87 °FSunny.13 mph59%29.91 "Hg10 mi
11:53 AM80 °FLight rain. Broken clouds.13 mph76%29.93 "Hg10 mi
10:53 AM83 °FBroken clouds.12 mph70%29.94 "Hg10 mi
10:02 AM82 °FBroken clouds.12 mph72%29.95 "Hg10 mi
9:53 AM81 °FBroken clouds.9 mph74%29.95 "Hg10 mi
8:53 AM80 °FSunny.10 mph79%29.95 "Hg10 mi
7:53 AM77 °FClear.10 mph82%29.94 "Hg10 mi
6:53 AM76 °FClear.9 mph82%29.93 "Hg10 mi
5:53 AM76 °FClear.8 mph80%29.92 "Hg10 mi
4:53 AM76 °FClear.7 mph82%29.92 "Hg10 mi
3:53 AM77 °FPassing clouds.12 mph85%29.93 "Hg10 mi
2:53 AM78 °FPassing clouds.9 mph84%29.94 "Hg10 mi
1:53 AM77 °FClear.8 mph88%29.96 "Hg10 mi
12:53 AM78 °FClear.10 mph82%29.96 "Hg10 mi
11:53 PM
Thu, Mar 26
78 °FPassing clouds.8 mph82%29.97 "Hg10 mi
10:53 PM78 °FPassing clouds.6 mph82%29.97 "Hg10 mi
9:53 PM79 °FClear.10 mph74%29.96 "Hg10 mi
8:53 PM80 °FClear.14 mph69%29.95 "Hg10 mi
7:53 PM80 °FSunny.14 mph69%29.94 "Hg10 mi
6:53 PM83 °FSunny.17 mph65%29.93 "Hg10 mi
5:53 PM85 °FPassing clouds.17 mph61%29.93 "Hg10 mi
4:53 PM86 °FSunny.20 mph53%29.93 "Hg10 mi
3:53 PM87 °FScattered clouds.20 mph53%29.96 "Hg10 mi
Weather by CustomWeather, © 2015

See weather overviewHow to use our weather pages